owner,sensor,date,latitude,longitude,vertical_datum,direction_of_sea_water_velocity,sea_water_speed,upward_sea_water_velocity,qcFlag 
TABS,ioos:station:wmo:42043:1,2000-03-01T00:00:00Z,28.9818,-94.9186,2.0,222.2496056,30.80168989,-99999.0,'11111222,11111222,99999999' 
TABS,ioos:station:wmo:42043:1,2000-03-01T00:30:00Z,28.9818,-94.9186,2.0,225.7739027,31.3984076,-99999.0,'11111222,11111222,99999999' 
TABS,ioos:station:wmo:42043:1,2000-03-01T01:00:00Z,28.9818,-94.9186,2.0,225.8062333,30.13987724,-99999.0,'11111222,11111222,99999999' 
TABS,ioos:station:wmo:42043:1,2000-03-01T01:30:00Z,28.9818,-94.9186,2.0,223.8476989,26.02679004,-99999.0,'11111222,11111222,99999999' 
TABS,ioos:station:wmo:42043:1,2000-03-01T02:00:00Z,28.9818,-94.9186,2.0,231.7160665,21.64458824,-99999.0,'11111222,11111222,99999999' 
TABS,ioos:station:wmo:42043:1,2000-03-01T02:30:00Z,28.9818,-94.9186,2.0,235.6055318,23.47391105,-99999.0,'11111222,11111222,99999999' 
TABS,ioos:station:wmo:42043:1,2000-03-01T03:00:00Z,28.9818,-94.9186,2.0,227.0744034,29.10237963,-99999.0,'11111222,11111222,99999999' 
TABS,ioos:station:wmo:42043:1,2000-03-01T03:30:00Z,28.9818,-94.9186,2.0,229.1299653,27.78367326,-99999.0,'11111222,11111222,99999999' 
TABS,ioos:station:wmo:42043:1,2000-03-01T04:00:00Z,28.9818,-94.9186,2.0,234.8306853,20.95523324,-99999.0,'11111222,11111222,99999999' 
TABS,ioos:station:wmo:42043:1,2000-03-01T04:30:00Z,28.9818,-94.9186,2.0,250.8157533,14.51609452,-99999.0,'11111222,11111222,99999999' 
TABS,ioos:station:wmo:42043:1,2000-03-01T05:00:00Z,28.9818,-94.9186,2.0,265.3033728,12.70264539,-99999.0,'11111222,11111222,99999999' 
TABS,ioos:station:wmo:42043:1,2000-03-01T05:30:00Z,28.9818,-94.9186,2.0,256.8229318,14.38883248,-99999.0,'11111222,11111222,99999999' 
TABS,ioos:station:wmo:42043:1,2000-03-01T06:00:00Z,28.9818,-94.9186,2.0,255.7051155,15.06646608,-99999.0,'11111222,11111222,99999999' 
TABS,ioos:station:wmo:42043:1,2000-03-01T06:30:00Z,28.9818,-94.9186,2.0,247.8674568,18.9783798,-99999.0,'11111222,11111222,99999999' 
TABS,ioos:station:wmo:42043:1,2000-03-01T07:00:00Z,28.9818,-94.9186,2.0,245.7650384,22.87600708,-99999.0,'11111222,11111222,99999999' 
TABS,ioos:station:wmo:42043:1,2000-03-01T07:30:00Z,28.9818,-94.9186,2.0,235.0056556,23.6446717,-99999.0,'11111222,11111222,99999999' 
TABS,ioos:station:wmo:42043:1,2000-03-01T08:00:00Z,28.9818,-94.9186,2.0,236.0063614,31.44362097,-99999.0,'11111222,11111222,99999999' 
TABS,ioos:station:wmo:42043:1,2000-03-01T08:30:00Z,28.9818,-94.9186,2.0,236.0689737,38.96525889,-99999.0,'11111222,11111222,99999999' 
TABS,ioos:station:wmo:42043:1,2000-03-01T09:00:00Z,28.9818,-94.9186,2.0,240.1621754,49.12154008,-99999.0,'11111222,11111222,99999999' 
TABS,ioos:station:wmo:42043:1,2000-03-01T09:30:00Z,28.9818,-94.9186,2.0,236.4561012,48.80822984,-99999.0,'11111222,11111222,99999999' 
TABS,ioos:station:wmo:42043:1,2000-03-01T10:00:00Z,28.9818,-94.9186,2.0,234.7230402,46.17985383,-99999.0,'11111222,11111222,99999999' 
TABS,ioos:station:wmo:42043:1,2000-03-01T10:30:00Z,28.9818,-94.9186,2.0,231.4288103,43.2570607,-99999.0,'11111222,11111222,99999999' 
TABS,ioos:station:wmo:42043:1,2000-03-01T11:00:00Z,28.9818,-94.9186,2.0,229.2404162,41.30913942,-99999.0,'11111222,11111222,99999999' 
TABS,ioos:station:wmo:42043:1,2000-03-01T11:30:00Z,28.9818,-94.9186,2.0,227.5380255,40.39421865,-99999.0,'11111222,11111222,99999999' 
TABS,ioos:station:wmo:42043:1,2000-03-01T12:00:00Z,28.9818,-94.9186,2.0,228.0441458,41.67204939,-99999.0,'11111222,11111222,99999999' 
TABS,ioos:station:wmo:42043:1,2000-03-01T12:30:00Z,28.9818,-94.9186,2.0,230.7998425,39.6027398,-99999.0,'11111222,11111222,99999999' 
TABS,ioos:station:wmo:42043:1,2000-03-01T13:00:00Z,28.9818,-94.9186,2.0,239.0757736,39.4241043,-99999.0,'11111222,11111222,99999999' 
TABS,ioos:station:wmo:42043:1,2000-03-01T13:30:00Z,28.9818,-94.9186,2.0,243.0448297,39.44515179,-99999.0,'11111222,11111222,99999999' 
TABS,ioos:station:wmo:42043:1,2000-03-01T14:00:00Z,28.9818,-94.9186,2.0,242.8896335,41.84766899,-99999.0,'11111222,11111222,99999999' 
TABS,ioos:station:wmo:42043:1,2000-03-01T14:30:00Z,28.9818,-94.9186,2.0,234.699309,41.25547842,-99999.0,'11111222,11111222,99999999' 
TABS,ioos:station:wmo:42043:1,2000-03-01T15:00:00Z,28.9818,-94.9186,2.0,234.7365332,40.5139297,-99999.0,'11111222,11111222,99999999' 
TABS,ioos:station:wmo:42043:1,2000-03-01T15:30:00Z,28.9818,-94.9186,2.0,209.7142861,35.16385218,-99999.0,'11111222,11111222,99999999' 
TABS,ioos:station:wmo:42043:1,2000-03-01T16:00:00Z,28.9818,-94.9186,2.0,249.2456805,45.40638391,-99999.0,'11111222,11111222,99999999' 
TABS,ioos:station:wmo:42043:1,2000-03-01T16:30:00Z,28.9818,-94.9186,2.0,252.0078353,42.92920335,-99999.0,'11111222,11111222,99999999' 
TABS,ioos:station:wmo:42043:1,2000-03-01T17:00:00Z,28.9818,-94.9186,2.0,249.697135,43.37470346,-99999.0,'11111222,11111222,99999999' 
TABS,ioos:station:wmo:42043:1,2000-03-01T17:30:00Z,28.9818,-94.9186,2.0,234.879389,39.89259831,-99999.0,'11111222,11111222,99999999' 
TABS,ioos:station:wmo:42043:1,2000-03-01T18:00:00Z,28.9818,-94.9186,2.0,240.7866835,41.81887253,-99999.0,'11111222,11111222,99999999' 
TABS,ioos:station:wmo:42043:1,2000-03-01T18:30:00Z,28.9818,-94.9186,2.0,237.3470165,43.35137945,-99999.0,'11111222,11111222,99999999' 
TABS,ioos:station:wmo:42043:1,2000-03-01T19:00:00Z,28.9818,-94.9186,2.0,237.4787269,42.410112,-99999.0,'11111222,11111222,99999999' 
TABS,ioos:station:wmo:42043:1,2000-03-01T19:30:00Z,28.9818,-94.9186,2.0,226.2229296,39.41604369,-99999.0,'11111222,11111222,99999999' 
TABS,ioos:station:wmo:42043:1,2000-03-01T20:00:00Z,28.9818,-94.9186,2.0,236.0324902,41.8637134,-99999.0,'11111222,11111222,99999999' 
TABS,ioos:station:wmo:42043:1,2000-03-01T20:30:00Z,28.9818,-94.9186,2.0,237.9715884,45.51843253,-99999.0,'11111222,11111222,99999999' 
TABS,ioos:station:wmo:42043:1,2000-03-01T21:00:00Z,28.9818,-94.9186,2.0,238.9108802,45.58786242,-99999.0,'11111222,11111222,99999999' 
TABS,ioos:station:wmo:42043:1,2000-03-01T21:30:00Z,28.9818,-94.9186,2.0,240.8765537,44.68986574,-99999.0,'11111222,11111222,99999999' 
TABS,ioos:station:wmo:42043:1,2000-03-01T22:00:00Z,28.9818,-94.9186,2.0,241.2190522,44.88460426,-99999.0,'11111222,11111222,99999999' 
TABS,ioos:station:wmo:42043:1,2000-03-01T22:30:00Z,28.9818,-94.9186,2.0,237.5308864,54.39239009,-99999.0,'11111222,11111222,99999999' 
TABS,ioos:station:wmo:42043:1,2000-03-01T23:00:00Z,28.9818,-94.9186,2.0,242.0201701,53.99065938,-99999.0,'11111222,11111222,99999999' 
TABS,ioos:station:wmo:42043:1,2000-03-01T23:30:00Z,28.9818,-94.9186,2.0,246.0683724,52.16443233,-99999.0,'11111222,11111222,99999999' 
TABS,ioos:station:wmo:42043:1,2000-03-02T00:00:00Z,28.9818,-94.9186,2.0,240.5697259,46.70722535,-99999.0,'11111222,11111222,99999999' 
TABS,ioos:station:wmo:42043:1,2000-03-02T00:30:00Z,28.9818,-94.9186,2.0,241.2624285,44.01060895,-99999.0,'11111222,11111222,99999999' 
TABS,ioos:station:wmo:42043:1,2000-03-02T01:00:00Z,28.9818,-94.9186,2.0,246.6628498,41.37477734,-99999.0,'11111222,11111222,99999999' 
TABS,ioos:station:wmo:42043:1,2000-03-02T01:30:00Z,28.9818,-94.9186,2.0,245.2616153,37.73270465,-99999.0,'11111222,11111222,99999999' 
TABS,ioos:station:wmo:42043:1,2000-03-02T02:00:00Z,28.9818,-94.9186,2.0,245.3158604,34.6016777,-99999.0,'11111222,11111222,99999999' 
TABS,ioos:station:wmo:42043:1,2000-03-02T02:30:00Z,28.9818,-94.9186,2.0,245.6748596,35.80892905,-99999.0,'11111222,11111222,99999999' 
TABS,ioos:station:wmo:42043:1,2000-03-02T03:00:00Z,28.9818,-94.9186,2.0,247.5263728,35.47396228,-99999.0,'11111222,11111222,99999999' 
TABS,ioos:station:wmo:42043:1,2000-03-02T03:30:00Z,28.9818,-94.9186,2.0,245.2222898,36.26878686,-99999.0,'11111222,11111222,99999999' 
TABS,ioos:station:wmo:42043:1,2000-03-02T04:00:00Z,28.9818,-94.9186,2.0,240.8192278,33.61628474,-99999.0,'11111222,11111222,99999999' 
TABS,ioos:station:wmo:42043:1,2000-03-02T04:30:00Z,28.9818,-94.9186,2.0,227.7656071,35.02137205,-99999.0,'11111222,11111222,99999999' 
TABS,ioos:station:wmo:42043:1,2000-03-02T06:00:00Z,28.9818,-94.9186,2.0,224.6756174,37.50554359,-99999.0,'11111222,11111222,99999999' 
TABS,ioos:station:wmo:42043:1,2000-03-02T06:30:00Z,28.9818,-94.9186,2.0,226.3220841,36.46106554,-99999.0,'11111222,11111222,99999999' 
TABS,ioos:station:wmo:42043:1,2000-03-02T07:00:00Z,28.9818,-94.9186,2.0,222.2733797,44.30088487,-99999.0,'11111222,11111222,99999999' 
TABS,ioos:station:wmo:42043:1,2000-03-02T07:30:00Z,28.9818,-94.9186,2.0,225.8426244,42.77751863,-99999.0,'11111222,11111222,99999999' 
TABS,ioos:station:wmo:42043:1,2000-03-02T08:00:00Z,28.9818,-94.9186,2.0,227.4365315,42.07554753,-99999.0,'11111222,11111222,99999999' 
TABS,ioos:station:wmo:42043:1,2000-03-02T08:30:00Z,28.9818,-94.9186,2.0,226.9984527,42.169221,-99999.0,'11111222,11111222,99999999' 
TABS,ioos:station:wmo:42043:1,2000-03-02T09:00:00Z,28.9818,-94.9186,2.0,229.5609952,39.74507391,-99999.0,'11111222,11111222,99999999' 
TABS,ioos:station:wmo:42043:1,2000-03-02T09:30:00Z,28.9818,-94.9186,2.0,233.0757746,38.20201696,-99999.0,'11111222,11111222,99999999' 
TABS,ioos:station:wmo:42043:1,2000-03-02T10:00:00Z,28.9818,-94.9186,2.0,230.9036725,38.97741526,-99999.0,'11111222,11111222,99999999' 
TABS,ioos:station:wmo:42043:1,2000-03-02T10:30:00Z,28.9818,-94.9186,2.0,233.0385084,37.67004778,-99999.0,'11111222,11111222,99999999' 
TABS,ioos:station:wmo:42043:1,2000-03-02T11:00:00Z,28.9818,-94.9186,2.0,229.9096433,38.1682643,-99999.0,'11111222,11111222,99999999' 
TABS,ioos:station:wmo:42043:1,2000-03-02T11:30:00Z,28.9818,-94.9186,2.0,232.1700285,35.46297506,-99999.0,'11111222,11111222,99999999' 
TABS,ioos:station:wmo:42043:1,2000-03-02T12:00:00Z,28.9818,-94.9186,2.0,233.9519714,33.17141541,-99999.0,'11111222,11111222,99999999' 
TABS,ioos:station:wmo:42043:1,2000-03-02T12:30:00Z,28.9818,-94.9186,2.0,231.2533345,29.99008169,-99999.0,'11111222,11111222,99999999' 
TABS,ioos:station:wmo:42043:1,2000-03-02T13:00:00Z,28.9818,-94.9186,2.0,229.679824,32.23842428,-99999.0,'11111222,11111222,99999999' 
TABS,ioos:station:wmo:42043:1,2000-03-02T13:30:00Z,28.9818,-94.9186,2.0,231.0780281,34.85834764,-99999.0,'11111222,11111222,99999999' 
TABS,ioos:station:wmo:42043:1,2000-03-02T14:00:00Z,28.9818,-94.9186,2.0,234.6683304,31.95552065,-99999.0,'11111222,11111222,99999999' 
TABS,ioos:station:wmo:42043:1,2000-03-02T14:30:00Z,28.9818,-94.9186,2.0,236.5426489,30.00120831,-99999.0,'11111222,11111222,99999999' 
TABS,ioos:station:wmo:42043:1,2000-03-02T15:00:00Z,28.9818,-94.9186,2.0,233.1256104,27.56400007,-99999.0,'11111222,11111222,99999999' 
TABS,ioos:station:wmo:42043:1,2000-03-02T15:30:00Z,28.9818,-94.9186,2.0,229.0231022,32.95461273,-99999.0,'11111222,11111222,99999999' 
TABS,ioos:station:wmo:42043:1,2000-03-02T16:00:00Z,28.9818,-94.9186,2.0,223.3645049,33.20511406,-99999.0,'11111222,11111222,99999999' 
TABS,ioos:station:wmo:42043:1,2000-03-02T16:30:00Z,28.9818,-94.9186,2.0,240.0763231,23.89540751,-99999.0,'11111222,11111222,99999999' 
TABS,ioos:station:wmo:42043:1,2000-03-02T17:00:00Z,28.9818,-94.9186,2.0,234.2804887,26.78940276,-99999.0,'11111222,11111222,99999999' 
TABS,ioos:station:wmo:42043:1,2000-03-02T17:30:00Z,28.9818,-94.9186,2.0,237.6165304,28.94069108,-99999.0,'11111222,11111222,99999999' 
TABS,ioos:station:wmo:42043:1,2000-03-02T18:00:00Z,28.9818,-94.9186,2.0,222.2939208,35.64964235,-99999.0,'11111222,11111222,99999999' 
TABS,ioos:station:wmo:42043:1,2000-03-02T18:30:00Z,28.9818,-94.9186,2.0,233.0724911,30.01001499,-99999.0,'11111222,11111222,99999999' 
TABS,ioos:station:wmo:42043:1,2000-03-02T19:00:00Z,28.9818,-94.9186,2.0,232.4150343,26.13403337,-99999.0,'11111222,11111222,99999999' 
TABS,ioos:station:wmo:42043:1,2000-03-02T19:30:00Z,28.9818,-94.9186,2.0,223.4433728,34.88737594,-99999.0,'11111222,11111222,99999999' 
TABS,ioos:station:wmo:42043:1,2000-03-02T20:00:00Z,28.9818,-94.9186,2.0,222.3452012,36.49050973,-99999.0,'11111222,11111222,99999999' 
TABS,ioos:station:wmo:42043:1,2000-03-02T20:30:00Z,28.9818,-94.9186,2.0,226.9002965,37.95008564,-99999.0,'11111222,11111222,99999999' 
TABS,ioos:station:wmo:42043:1,2000-03-02T21:00:00Z,28.9818,-94.9186,2.0,223.1292845,35.52983254,-99999.0,'11111222,11111222,99999999' 
TABS,ioos:station:wmo:42043:1,2000-03-02T21:30:00Z,28.9818,-94.9186,2.0,228.891883,31.0428768,-99999.0,'11111222,11111222,99999999' 
TABS,ioos:station:wmo:42043:1,2000-03-02T22:00:00Z,28.9818,-94.9186,2.0,228.8942447,29.46246595,-99999.0,'11111222,11111222,99999999' 
TABS,ioos:station:wmo:42043:1,2000-03-02T22:30:00Z,28.9818,-94.9186,2.0,232.8213434,27.12239296,-99999.0,'11111222,11111222,99999999' 
TABS,ioos:station:wmo:42043:1,2000-03-02T23:00:00Z,28.9818,-94.9186,2.0,233.6277234,27.38503423,-99999.0,'11111222,11111222,99999999' 
TABS,ioos:station:wmo:42043:1,2000-03-02T23:30:00Z,28.9818,-94.9186,2.0,225.630593,47.52045665,-99999.0,'11111222,11111222,99999999' 
TABS,ioos:station:wmo:42043:1,2000-03-03T00:00:00Z,28.9818,-94.9186,2.0,232.2429514,25.06900277,-99999.0,'11111222,11111222,99999999' 
TABS,ioos:station:wmo:42043:1,2000-03-03T00:30:00Z,28.9818,-94.9186,2.0,246.3781377,20.81394965,-99999.0,'11111222,11111222,99999999' 
TABS,ioos:station:wmo:42043:1,2000-03-03T01:00:00Z,28.9818,-94.9186,2.0,247.9385111,12.69983464,-99999.0,'11111222,11111222,99999999' 
TABS,ioos:station:wmo:42043:1,2000-03-03T01:30:00Z,28.9818,-94.9186,2.0,252.8527108,8.58142762,-99999.0,'11133222,11111222,99999999' 
TABS,ioos:station:wmo:42043:1,2000-03-03T02:00:00Z,28.9818,-94.9186,2.0,234.9170162,6.733275577,-99999.0,'11133222,11111222,99999999' 
TABS,ioos:station:wmo:42043:1,2000-03-03T02:30:00Z,28.9818,-94.9186,2.0,203.530746,6.336955105,-99999.0,'11133222,11111222,99999999' 
TABS,ioos:station:wmo:42043:1,2000-03-03T03:00:00Z,28.9818,-94.9186,2.0,214.2364422,9.011514856,-99999.0,'11133222,11111222,99999999' 
TABS,ioos:station:wmo:42043:1,2000-03-03T03:30:00Z,28.9818,-94.9186,2.0,195.4750084,10.04414257,-99999.0,'11111222,11111222,99999999' 
TABS,ioos:station:wmo:42043:1,2000-03-03T04:00:00Z,28.9818,-94.9186,2.0,199.4240037,8.058684756,-99999.0,'11133222,11111222,99999999' 
TABS,ioos:station:wmo:42043:1,2000-03-03T04:30:00Z,28.9818,-94.9186,2.0,188.6839933,14.76932294,-99999.0,'11111222,11111222,99999999' 
TABS,ioos:station:wmo:42043:1,2000-03-03T06:00:00Z,28.9818,-94.9186,2.0,178.0938158,18.0399806,-99999.0,'11111222,11111222,99999999' 
TABS,ioos:station:wmo:42043:1,2000-03-03T06:30:00Z,28.9818,-94.9186,2.0,178.2788557,19.97901149,-99999.0,'11111222,11111222,99999999' 
TABS,ioos:station:wmo:42043:1,2000-03-03T07:00:00Z,28.9818,-94.9186,2.0,172.881362,21.62669647,-99999.0,'11111222,11111222,99999999' 
TABS,ioos:station:wmo:42043:1,2000-03-03T07:30:00Z,28.9818,-94.9186,2.0,179.9997895,26.52,-99999.0,'11111222,11111222,99999999' 
TABS,ioos:station:wmo:42043:1,2000-03-03T08:00:00Z,28.9818,-94.9186,2.0,182.1777689,31.31262046,-99999.0,'11111222,11111222,99999999' 
TABS,ioos:station:wmo:42043:1,2000-03-03T08:30:00Z,28.9818,-94.9186,2.0,181.7008165,35.0354392,-99999.0,'11111222,11111222,99999999' 
TABS,ioos:station:wmo:42043:1,2000-03-03T09:00:00Z,28.9818,-94.9186,2.0,184.0821437,37.64551633,-99999.0,'11111222,11111222,99999999' 
TABS,ioos:station:wmo:42043:1,2000-03-03T09:30:00Z,28.9818,-94.9186,2.0,186.6875456,40.95870237,-99999.0,'11111222,11111222,99999999' 
TABS,ioos:station:wmo:42043:1,2000-03-03T10:00:00Z,28.9818,-94.9186,2.0,191.9410884,45.38206804,-99999.0,'11111222,11111222,99999999' 
TABS,ioos:station:wmo:42043:1,2000-03-03T10:30:00Z,28.9818,-94.9186,2.0,192.509931,43.34921568,-99999.0,'11111222,11111222,99999999' 
TABS,ioos:station:wmo:42043:1,2000-03-03T11:00:00Z,28.9818,-94.9186,2.0,198.3176859,46.4539557,-99999.0,'11111222,11111222,99999999' 
TABS,ioos:station:wmo:42043:1,2000-03-03T11:30:00Z,28.9818,-94.9186,2.0,201.7677668,47.80912988,-99999.0,'11111222,11111222,99999999' 
TABS,ioos:station:wmo:42043:1,2000-03-03T12:00:00Z,28.9818,-94.9186,2.0,205.8670454,48.84381844,-99999.0,'11111222,11111222,99999999' 
TABS,ioos:station:wmo:42043:1,2000-03-03T12:30:00Z,28.9818,-94.9186,2.0,203.9422575,46.62165269,-99999.0,'11111222,11111222,99999999' 
TABS,ioos:station:wmo:42043:1,2000-03-03T13:00:00Z,28.9818,-94.9186,2.0,205.2793863,44.65657063,-99999.0,'11111222,11111222,99999999' 
TABS,ioos:station:wmo:42043:1,2000-03-03T13:30:00Z,28.9818,-94.9186,2.0,201.7314453,44.26608747,-99999.0,'11111222,11111222,99999999' 
TABS,ioos:station:wmo:42043:1,2000-03-03T14:00:00Z,28.9818,-94.9186,2.0,200.3810043,44.50627372,-99999.0,'11111222,11111222,99999999' 
TABS,ioos:station:wmo:42043:1,2000-03-03T14:30:00Z,28.9818,-94.9186,2.0,202.6443188,41.01154228,-99999.0,'11111222,11111222,99999999' 
TABS,ioos:station:wmo:42043:1,2000-03-03T15:00:00Z,28.9818,-94.9186,2.0,204.454876,38.14187332,-99999.0,'11111222,11111222,99999999' 
TABS,ioos:station:wmo:42043:1,2000-03-03T15:30:00Z,28.9818,-94.9186,2.0,203.0846441,38.38357201,-99999.0,'11111222,11111222,99999999' 
TABS,ioos:station:wmo:42043:1,2000-03-03T16:00:00Z,28.9818,-94.9186,2.0,193.5671063,31.11836275,-99999.0,'11111222,11111222,99999999' 
TABS,ioos:station:wmo:42043:1,2000-03-03T16:30:00Z,28.9818,-94.9186,2.0,186.3753327,26.83597026,-99999.0,'11111222,11111222,99999999' 
TABS,ioos:station:wmo:42043:1,2000-03-03T17:00:00Z,28.9818,-94.9186,2.0,214.4133847,22.40058035,-99999.0,'11111222,11111222,99999999' 
TABS,ioos:station:wmo:42043:1,2000-03-03T17:30:00Z,28.9818,-94.9186,2.0,193.7317172,20.09435991,-99999.0,'11111222,11111222,99999999' 
TABS,ioos:station:wmo:42043:1,2000-03-03T18:00:00Z,28.9818,-94.9186,2.0,236.23345,29.21885864,-99999.0,'11111222,11111222,99999999' 
TABS,ioos:station:wmo:42043:1,2000-03-03T18:30:00Z,28.9818,-94.9186,2.0,222.6566523,12.9721124,-99999.0,'11111222,11111222,99999999' 
TABS,ioos:station:wmo:42043:1,2000-03-03T19:00:00Z,28.9818,-94.9186,2.0,227.4022882,10.1205237,-99999.0,'11111222,11111222,99999999' 
TABS,ioos:station:wmo:42043:1,2000-03-03T19:30:00Z,28.9818,-94.9186,2.0,223.198528,6.749133278,-99999.0,'11133222,11111222,99999999' 
TABS,ioos:station:wmo:42043:1,2000-03-03T20:00:00Z,28.9818,-94.9186,2.0,179.9997895,2.38,-99999.0,'11133222,11111222,99999999' 
TABS,ioos:station:wmo:42043:1,2000-03-03T20:30:00Z,28.9818,-94.9186,2.0,235.7629264,9.011514856,-99999.0,'11133222,11111222,99999999' 
TABS,ioos:station:wmo:42043:1,2000-03-03T21:00:00Z,28.9818,-94.9186,2.0,347.8689178,12.03884546,-99999.0,'11111222,11111222,99999999' 
TABS,ioos:station:wmo:42043:1,2000-03-03T21:30:00Z,28.9818,-94.9186,2.0,224.9996843,10.11162697,-99999.0,'11111222,11111222,99999999' 
TABS,ioos:station:wmo:42043:1,2000-03-03T22:00:00Z,28.9818,-94.9186,2.0,163.5252091,6.840847901,-99999.0,'11133222,11111222,99999999' 
TABS,ioos:station:wmo:42043:1,2000-03-03T22:30:00Z,28.9818,-94.9186,2.0,183.6639653,16.27326642,-99999.0,'11111222,11111222,99999999' 
TABS,ioos:station:wmo:42043:1,2000-03-03T23:00:00Z,28.9818,-94.9186,2.0,144.6901403,13.14887448,-99999.0,'11111222,11111222,99999999' 
TABS,ioos:station:wmo:42043:1,2000-03-03T23:30:00Z,28.9818,-94.9186,2.0,207.9876403,18.73060864,-99999.0,'11111222,11111222,99999999' 
TABS,ioos:station:wmo:42043:1,2000-03-04T00:00:00Z,28.9818,-94.9186,2.0,172.7900846,14.26276972,-99999.0,'11111222,11111222,99999999' 
TABS,ioos:station:wmo:42043:1,2000-03-04T00:30:00Z,28.9818,-94.9186,2.0,156.0406607,17.60711788,-99999.0,'11111222,11111222,99999999' 
TABS,ioos:station:wmo:42043:1,2000-03-04T01:00:00Z,28.9818,-94.9186,2.0,157.3369853,20.5030827,-99999.0,'11111222,11111222,99999999' 
TABS,ioos:station:wmo:42043:1,2000-03-04T01:30:00Z,28.9818,-94.9186,2.0,132.2755235,19.93465826,-99999.0,'11111222,11111222,99999999' 
TABS,ioos:station:wmo:42043:1,2000-03-04T02:00:00Z,28.9818,-94.9186,2.0,162.1733207,30.67266046,-99999.0,'11111222,11111222,99999999' 
TABS,ioos:station:wmo:42043:1,2000-03-04T02:30:00Z,28.9818,-94.9186,2.0,165.8495539,35.34236127,-99999.0,'11111222,11111222,99999999' 
TABS,ioos:station:wmo:42043:1,2000-03-04T03:00:00Z,28.9818,-94.9186,2.0,204.9944648,21.86801317,-99999.0,'11111222,11111222,99999999' 
TABS,ioos:station:wmo:42043:1,2000-03-04T03:30:00Z,28.9818,-94.9186,2.0,186.7982001,41.56223406,-99999.0,'11111222,11111222,99999999' 
TABS,ioos:station:wmo:42043:1,2000-03-04T04:00:00Z,28.9818,-94.9186,2.0,184.4970558,51.26785055,-99999.0,'11111222,11111222,99999999' 
TABS,ioos:station:wmo:42043:1,2000-03-04T04:30:00Z,28.9818,-94.9186,2.0,188.0233403,55.52353465,-99999.0,'11111222,11111222,99999999' 
TABS,ioos:station:wmo:42043:1,2000-03-04T06:00:00Z,28.9818,-94.9186,2.0,197.9483151,55.13313523,-99999.0,'11111222,11111222,99999999' 
TABS,ioos:station:wmo:42043:1,2000-03-04T06:30:00Z,28.9818,-94.9186,2.0,201.0305479,55.22893173,-99999.0,'11111222,11111222,99999999' 
TABS,ioos:station:wmo:42043:1,2000-03-04T07:00:00Z,28.9818,-94.9186,2.0,206.727327,45.7143577,-99999.0,'11111222,11111222,99999999' 
TABS,ioos:station:wmo:42043:1,2000-03-04T07:30:00Z,28.9818,-94.9186,2.0,205.6322873,48.91375676,-99999.0,'11111222,11111222,99999999' 
TABS,ioos:station:wmo:42043:1,2000-03-04T08:00:00Z,28.9818,-94.9186,2.0,207.910081,45.52547638,-99999.0,'11111222,11111222,99999999' 
TABS,ioos:station:wmo:42043:1,2000-03-04T08:30:00Z,28.9818,-94.9186,2.0,206.8311872,44.24331927,-99999.0,'11111222,11111222,99999999' 
TABS,ioos:station:wmo:42043:1,2000-03-04T09:00:00Z,28.9818,-94.9186,2.0,203.9232935,44.83160492,-99999.0,'11111222,11111222,99999999' 
TABS,ioos:station:wmo:42043:1,2000-03-04T09:30:00Z,28.9818,-94.9186,2.0,207.317863,35.38659633,-99999.0,'11111222,11111222,99999999' 
TABS,ioos:station:wmo:42043:1,2000-03-04T10:00:00Z,28.9818,-94.9186,2.0,206.3019564,29.24807686,-99999.0,'11111222,11111222,99999999' 
TABS,ioos:station:wmo:42043:1,2000-03-04T10:30:00Z,28.9818,-94.9186,2.0,206.2603342,38.71582751,-99999.0,'11111222,11111222,99999999' 
TABS,ioos:station:wmo:42043:1,2000-03-04T11:00:00Z,28.9818,-94.9186,2.0,217.9063349,34.92971801,-99999.0,'11111222,11111222,99999999' 
TABS,ioos:station:wmo:42043:1,2000-03-04T11:30:00Z,28.9818,-94.9186,2.0,212.2344532,40.51450358,-99999.0,'11111222,11111222,99999999' 
TABS,ioos:station:wmo:42043:1,2000-03-04T12:00:00Z,28.9818,-94.9186,2.0,224.9996843,32.24406922,-99999.0,'11111222,11111222,99999999' 
TABS,ioos:station:wmo:42043:1,2000-03-04T12:30:00Z,28.9818,-94.9186,2.0,223.4763861,39.63319947,-99999.0,'11111222,11111222,99999999' 
TABS,ioos:station:wmo:42043:1,2000-03-04T13:00:00Z,28.9818,-94.9186,2.0,233.8246942,37.10272901,-99999.0,'11111222,11111222,99999999' 
TABS,ioos:station:wmo:42043:1,2000-03-04T13:30:00Z,28.9818,-94.9186,2.0,242.5431949,33.92078419,-99999.0,'11111222,11111222,99999999' 
TABS,ioos:station:wmo:42043:1,2000-03-04T14:00:00Z,28.9818,-94.9186,2.0,232.6050864,19.87483333,-99999.0,'11111222,11111222,99999999' 
TABS,ioos:station:wmo:42043:1,2000-03-04T14:30:00Z,28.9818,-94.9186,2.0,236.5398295,51.07443294,-99999.0,'11111222,11111222,99999999' 
TABS,ioos:station:wmo:42043:1,2000-03-04T15:00:00Z,28.9818,-94.9186,2.0,235.410027,36.74509627,-99999.0,'11111222,11111222,99999999' 
TABS,ioos:station:wmo:42043:1,2000-03-04T15:30:00Z,28.9818,-94.9186,2.0,247.6186213,35.61261715,-99999.0,'11111222,11111222,99999999' 
TABS,ioos:station:wmo:42043:1,2000-03-04T16:00:00Z,28.9818,-94.9186,2.0,243.6808676,32.25334246,-99999.0,'11111222,11111222,99999999' 
TABS,ioos:station:wmo:42043:1,2000-03-04T16:30:00Z,28.9818,-94.9186,2.0,251.9796515,32.74624406,-99999.0,'11111222,11111222,99999999' 
TABS,ioos:station:wmo:42043:1,2000-03-04T17:00:00Z,28.9818,-94.9186,2.0,254.6473412,25.34438202,-99999.0,'11111222,11111222,99999999' 
TABS,ioos:station:wmo:42043:1,2000-03-04T17:30:00Z,28.9818,-94.9186,2.0,251.2860906,19.5114838,-99999.0,'11111222,11111222,99999999' 
TABS,ioos:station:wmo:42043:1,2000-03-04T18:00:00Z,28.9818,-94.9186,2.0,271.5908215,21.61832787,-99999.0,'11111222,11111222,99999999' 
TABS,ioos:station:wmo:42043:1,2000-03-04T18:30:00Z,28.9818,-94.9186,2.0,262.7039916,12.91455381,-99999.0,'11111222,11111222,99999999' 
TABS,ioos:station:wmo:42043:1,2000-03-04T19:00:00Z,28.9818,-94.9186,2.0,274.5033108,18.97858003,-99999.0,'11111222,11111222,99999999' 